Regional Weather Roundup
Issued by NWS

Home | Current Version | Previous Version | Text Only | Print | Product List | Glossary Off
Versions: 1 2 3 4 5 6 7 8 9 10 11 12 13 14 15 16 17 18 19 20 21 22 23 24 25 26 27 28 29 30 31 32 33 34 35 36 37 38 39 40 41 42 43 44 45 46 47 48 49 50

516
ASUS45 KSLC 241610
RWRUT

UTAH REGIONAL WEATHER ROUNDUP
NATIONAL WEATHER SERVICE SALT LAKE CITY UT
900 AM MST FRI NOV 24 2017

UTZ001>011-023>025-241700-

NORTHERN UTAH

CITY           SKY/WX    TMP DP  RH WIND       PRES   REMARKS
BRIGHAM CITY   SUNNY     44  39  81 E3        30.01R
HILL AFB       MOSUNNY   47  37  69 S9        30.03R
LOGAN          MOSUNNY   49  38  65 E5        29.99R
OGDEN          MOSUNNY   48  39  71 S8        30.02R
SALT LAKE CITY MOSUNNY   45  42  89 CALM      30.04R
TOOELE VALLEY  MOSUNNY   45  41  87 S6        30.05R
WENDOVER       SUNNY     44  35  70 S6        30.04R
HEBER CITY       N/A     43  32  65 E3        30.02R
WEST JORDAN    MOSUNNY   43  41  94 CALM      30.06R

$$

UTZ011>015-024>027-241700-

CENTRAL/NORTHEAST UTAH

CITY           SKY/WX    TMP DP  RH WIND       PRES   REMARKS
PROVO AIRPORT  PTSUNNY   48  40  73 NW9       30.03R
MOAB/CANYONLAN PTSUNNY   42  29  59 NW3       30.06R
DELTA          PTSUNNY   46  30  53 S6        30.04R
PRICE          PTSUNNY   44  33  65 CALM      30.07F
RICHFIELD      SUNNY     50  30  46 CALM      30.06S
ROOSEVELT      CLOUDY    36  32  87 N3        30.05R
VERNAL         CLOUDY    41  33  73 N5        30.02R

$$

UTZ013>016-019>022-027-241700-

SOUTHERN UTAH

CITY           SKY/WX    TMP DP  RH WIND       PRES   REMARKS
BRYCE CANYON   MOSUNNY   40  20  44 W5        30.20R
CEDAR CITY     PTSUNNY   47  24  40 SE3       30.11R
MILFORD        SUNNY     54  28  36 SW18      30.06R
ST GEORGE      PTSUNNY   45  30  55 CALM      30.09R
HANKSVILLE     MOSUNNY   36  23  60 CALM      30.11S
KANAB          SUNNY     45  27  49 N3        30.17R
BLANDING         N/A     44  30  57 CALM      30.22R

$$

REGIONAL REPORTS     COLORADO/ARIZONA

CITY           SKY/WX    TMP DP  RH WIND       PRES   REMARKS
CRAIG, CO      CLOUDY    37  33  85 CALM      30.00F
GRAND JUNCTION SUNNY     45  34  65 CALM      30.08R
RIFLE, CO      CLOUDY    39  35  86 CALM      30.09S
MONTROSE, CO   SUNNY     42  30  62 CALM      30.10F
CORTEZ, CO     SUNNY     43  26  51 E3        30.15S
COLORADO CITY    N/A     46  32  57 SE5       30.14S
PAGE, AZ       SUNNY     48  31  51 CALM      30.10S
GRAND CANYON   SUNNY     41  20  43 CALM      30.21R
KINGMAN, AZ    SUNNY     66  31  27 S3        30.05R
FLAGSTAFF, AZ  SUNNY     53  25  33 SW7       30.22R

$$

REGIONAL REPORTS    NEVADA/IDAHO/WYOMING

CITY           SKY/WX    TMP DP  RH WIND       PRES   REMARKS
LAS VEGAS, NV  MOSUNNY   62  37  39 CALM      30.01R
ELY, NY        SUNNY     43  25  49 CALM      30.13R
ELKO, NV       MOSUNNY   45  35  68 CALM      30.10R
POCATELLO, ID  LGT RAIN  45  43  93 SW12      30.01S
BURLEY, ID     LGT RAIN  46  44  93 SW12      30.04R
FORT BRIDGER,    N/A     47  33  58 SW14      30.07R
EVANSTON, WY   CLOUDY    47  33  58 SW10      30.05R
ROCK SPRINGS,  CLOUDY    42  31  64 S8        30.02R
KEMMERER, WY   SUNNY     39  32  75 W5        30.04R

$$




USA.gov is the U.S. government's official web portal to all federal, state and local government web resources and services.